Find Telstar 18 Vantage

NORAD ID: 43611 Int'l Des: 2018-069 Owner: TSKY Country: CA operational
HEOCIRCULARGSOGEO

Current View

Loading 3D Globe...

About Telstar 18 Vantage

Description loading...

Upcoming Passes

Passes for default location (London). Set your location on the main map for personalized predictions.

Altitude History

Loading altitude history...

Two-Line Element Set

1 43611U 18069A 26149.24715116 -.00000283 00000-0 00000+0 0 9991
2 43611 0.0121 293.9547 0002112 129.5266 50.2721 1.00271430 28451
Epoch: May 29, 2026 • Age: 19 hours

Current Status

Altitude 35778.3 km
Velocity 3.08 km/s
Sub-Earth Point 0.04°N, 137.98°E
Launch Date Sep 10, 2018
Age 7.7 years
Type other

Technical Details

Classification Payload
Mass 7060.00 kg
Dry Mass 2000.00 kg
Total Mass 7060.00 kg
Length 8.90 m
Diameter 6.90 m
Span 26.10 m
Shape Box + 2 panels
Manufacturer SSLMAX
Bus Type LS-1300
Phase Status In Orbit
Owner/State TSKY/CA

Most Searched